Tracking 19794 objects as of 23-Jul-2019
HD Live streaming from Space Station
objects crossing your sky now

COSMOS 1275 DEB

Track COSMOS 1275 DEB now!
10-day predictions


NORAD ID: 18275
Int'l Code: 1981-053LT
Perigee: 924.4 km
Apogee: 1,126.1 km
Inclination: 82.9 °
Period: 105.5 minutes
Semi major axis: 7396 km
RCS: 0.0076 m2 (small)
Launch date: June 4, 1981
Source: Commonwealth of Independent States (former USSR) (CIS)
Launch site: PLESETSK MISSILE AND SPACE COMPLEX (PKMTR)

Note: This is SATELLITE DEBRIS
aabbcc
Your satellite tracking list
Your tracking list is empty




NASA's NSSDC Master Catalog

Two Line Element Set (TLE):
1 18275U 81053LQ  19202.52736067  .00000146  00000-0  15137-3 0  9991
2 18275  82.9281 229.4957 0136330  42.3104 111.5552 13.64858007712005
Source of the keplerian elements: AFSPC